When you browse on this site, cookies collect data to enhance your experience and personalize the content and advertising you see.
Visit our Privacy Policy to learn more. By continuing to use the site, you agree to this use of cookies and data.
  • In Latvia
  • List of Countries
  • For 7 days
  • Water Temperature
  • Weather Map
  • Weather Widgets
  • user-avatar
    Login

    Hourly Weather Semenovka

    Today, 28 May, Thursday

    Time Temperature Precipitation Wind Pressure Humidity
    00:00 +12°C° 0 mm 4 mps 749 mmHg 58%
    01:00 +11°C° 0 mm 4 mps 750 mmHg 61%
    02:00 +10°C° 0 mm 3 mps 750 mmHg 65%
    03:00 +10°C° 0 mm 3 mps 750 mmHg 65%
    04:00 +10°C° 0 mm 3 mps 750 mmHg 65%
    05:00 +10°C° 0 mm 3 mps 750 mmHg 64%
    06:00 +11°C° 0 mm 3 mps 751 mmHg 57%
    07:00 +13°C° 0 mm 4 mps 751 mmHg 51%
    08:00 +14°C° 0 mm 4 mps 751 mmHg 45%
    09:00 +15°C° 0 mm 4 mps 750 mmHg 41%
    10:00 +17°C° 0 mm 3 mps 750 mmHg 36%
    11:00 +19°C° 0 mm 3 mps 750 mmHg 32%
    12:00 +20°C° 0 mm 4 mps 749 mmHg 30%
    13:00 +20°C° 0 mm 4 mps 749 mmHg 28%
    14:00 +21°C° 0 mm 4 mps 749 mmHg 26%
    15:00 +21°C° 0 mm 4 mps 749 mmHg 26%
    16:00 +21°C° 0 mm 4 mps 748 mmHg 26%
    17:00 +21°C° 0 mm 5 mps 748 mmHg 26%
    18:00 +20°C° 0 mm 4 mps 748 mmHg 30%
    19:00 +18°C° 0 mm 4 mps 748 mmHg 34%
    20:00 +17°C° 0 mm 3 mps 748 mmHg 37%
    21:00 +16°C° 0 mm 3 mps 748 mmHg 39%
    22:00 +14°C° 0 mm 3 mps 747 mmHg 41%
    23:00 +13°C° 0 mm 3 mps 747 mmHg 42%

    Tomorrow, 29 May, Friday

    Time Temperature Precipitation Wind Pressure Humidity
    00:00 +14°C° 0 mm 2 mps 747 mmHg 45%
    01:00 +13°C° 0 mm 2 mps 747 mmHg 47%
    02:00 +13°C° 0 mm 1 mps 746 mmHg 49%
    03:00 +13°C° 0 mm 1 mps 746 mmHg 49%
    04:00 +14°C° 0 mm 1 mps 747 mmHg 50%
    05:00 +15°C° 0 mm 1 mps 747 mmHg 50%
    06:00 +16°C° 0 mm 1 mps 747 mmHg 45%
    07:00 +19°C° 0 mm 1 mps 746 mmHg 40%
    08:00 +20°C° 0 mm 1 mps 746 mmHg 34%
    09:00 +22°C° 0 mm 1 mps 746 mmHg 33%
    10:00 +23°C° 0 mm 1 mps 746 mmHg 31%
    11:00 +24°C° 0 mm 1 mps 746 mmHg 29%
    12:00 +25°C° 0 mm 1 mps 745 mmHg 28%
    13:00 +26°C° 0 mm 1 mps 745 mmHg 27%
    14:00 +26°C° 0 mm 2 mps 744 mmHg 25%
    15:00 +27°C° 0 mm 2 mps 744 mmHg 26%
    16:00 +27°C° 0 mm 1 mps 743 mmHg 26%
    17:00 +27°C° 0 mm 1 mps 743 mmHg 26%
    18:00 +25°C° 0 mm 1 mps 743 mmHg 30%
    19:00 +24°C° 0 mm 1 mps 742 mmHg 33%
    20:00 +22°C° 0 mm 1 mps 742 mmHg 37%
    21:00 +22°C° 0 mm 1 mps 742 mmHg 37%
    22:00 +20°C° 0 mm 2 mps 741 mmHg 36%
    23:00 +20°C° 0 mm 2 mps 741 mmHg 36%

    Day after tomorrow, 30 May, Saturday

    Time Temperature Precipitation Wind Pressure Humidity
    00:00 +20°C° 0 mm 3 mps 741 mmHg 37%
    01:00 +20°C° 0 mm 3 mps 740 mmHg 38%
    02:00 +19°C° 0 mm 3 mps 740 mmHg 39%
    03:00 +20°C° 0 mm 3 mps 740 mmHg 40%
    04:00 +20°C° 0 mm 3 mps 740 mmHg 40%
    05:00 +20°C° 0 mm 3 mps 740 mmHg 41%
    06:00 +21°C° 0 mm 4 mps 741 mmHg 43%
    07:00 +22°C° 0 mm 5 mps 741 mmHg 46%
    08:00 +22°C° 0 mm 5 mps 741 mmHg 49%
    09:00 +23°C° 0 mm 6 mps 741 mmHg 44%
    10:00 +26°C° 0 mm 6 mps 741 mmHg 39%
    11:00 +27°C° 0 mm 6 mps 741 mmHg 34%
    12:00 +27°C° 0 mm 6 mps 741 mmHg 31%
    13:00 +27°C° 0 mm 6 mps 741 mmHg 28%
    14:00 +28°C° 0 mm 6 mps 741 mmHg 24%
    15:00 +27°C° 0 mm 6 mps 741 mmHg 25%
    16:00 +27°C° 0 mm 6 mps 741 mmHg 26%
    17:00 +27°C° 0 mm 6 mps 741 mmHg 27%
    18:00 +25°C° 0 mm 5 mps 741 mmHg 31%
    19:00 +22°C° 0 mm 3 mps 741 mmHg 35%
    20:00 +20°C° 0 mm 2 mps 742 mmHg 39%
    21:00 +20°C° 0 mm 2 mps 742 mmHg 40%
    22:00 +19°C° 0 mm 2 mps 742 mmHg 41%
    23:00 +18°C° 0 mm 2 mps 742 mmHg 42%

    31 May, Sunday

    Time Temperature Precipitation Wind Pressure Humidity
    00:00 +17°C° 0 mm 2 mps 742 mmHg 46%
    01:00 +16°C° 0 mm 1 mps 742 mmHg 49%
    02:00 +15°C° 0 mm 1 mps 742 mmHg 53%
    03:00 +16°C° 0 mm 1 mps 742 mmHg 51%
    04:00 +17°C° 0 mm 2 mps 742 mmHg 49%
    05:00 +18°C° 0 mm 2 mps 742 mmHg 46%
    06:00 +20°C° 0 mm 3 mps 742 mmHg 41%
    07:00 +22°C° 0 mm 3 mps 742 mmHg 36%
    08:00 +25°C° 0 mm 4 mps 742 mmHg 30%
    09:00 +26°C° 0 mm 4 mps 741 mmHg 28%
    10:00 +27°C° 0 mm 4 mps 741 mmHg 26%
    11:00 +28°C° 0 mm 4 mps 741 mmHg 24%
    12:00 +29°C° 0 mm 4 mps 740 mmHg 23%
    13:00 +30°C° 0 mm 4 mps 740 mmHg 21%
    14:00 +32°C° 0 mm 5 mps 739 mmHg 20%
    15:00 +32°C° 0 mm 4 mps 739 mmHg 20%
    16:00 +32°C° 0 mm 4 mps 739 mmHg 19%
    17:00 +32°C° 0 mm 4 mps 738 mmHg 19%
    18:00 +28°C° 0 mm 3 mps 738 mmHg 24%
    19:00 +26°C° 0 mm 1 mps 738 mmHg 28%
    20:00 +21°C° 0 mm 0 mps 737 mmHg 33%
    21:00 +24°C° 0 mm 2 mps 737 mmHg 31%
    22:00 +24°C° 0 mm 3 mps 737 mmHg 30%
    23:00 +23°C° 0 mm 4 mps 736 mmHg 28%

    1 June, Monday

    Time Temperature Precipitation Wind Pressure Humidity
    00:00 +23°C° 0.1 mm 5 mps 736 mmHg 28%
    01:00 +23°C° 0.1 mm 6 mps 735 mmHg 28%
    02:00 +23°C° 0.1 mm 6 mps 735 mmHg 29%
    03:00 +24°C° 0 mm 6 mps 735 mmHg 31%
    04:00 +24°C° 0 mm 6 mps 734 mmHg 33%
    05:00 +24°C° 0 mm 6 mps 734 mmHg 35%
    06:00 +26°C° 0 mm 6 mps 734 mmHg 35%
    07:00 +28°C° 0 mm 6 mps 735 mmHg 36%
    08:00 +29°C° 0 mm 6 mps 735 mmHg 36%
    09:00 +30°C° 0 mm 5 mps 735 mmHg 34%
    10:00 +32°C° 0 mm 5 mps 735 mmHg 32%
    11:00 +32°C° 0 mm 4 mps 735 mmHg 29%
    12:00 +33°C° 0 mm 5 mps 735 mmHg 28%
    13:00 +34°C° 0 mm 5 mps 735 mmHg 27%
    14:00 +35°C° 0 mm 6 mps 735 mmHg 25%
    15:00 +35°C° 0 mm 5 mps 734 mmHg 25%
    16:00 +35°C° 0 mm 4 mps 734 mmHg 25%
    17:00 +35°C° 0 mm 3 mps 733 mmHg 24%
    18:00 +33°C° 0.2 mm 6 mps 734 mmHg 33%
    19:00 +29°C° 0.2 mm 8 mps 734 mmHg 41%
    20:00 +27°C° 0.2 mm 11 mps 734 mmHg 49%
    21:00 +24°C° 0.7 mm 8 mps 734 mmHg 58%
    22:00 +22°C° 0.7 mm 5 mps 735 mmHg 68%
    23:00 +21°C° 0.7 mm 1 mps 735 mmHg 77%

    2 June, Tuesday

    Time Temperature Precipitation Wind Pressure Humidity
    00:00 +20°C° 0 mm 2 mps 735 mmHg 78%
    01:00 +20°C° 0 mm 3 mps 735 mmHg 79%
    02:00 +19°C° 0 mm 4 mps 735 mmHg 80%
    03:00 +20°C° 0 mm 5 mps 734 mmHg 75%
    04:00 +20°C° 0 mm 5 mps 734 mmHg 70%
    05:00 +21°C° 0 mm 5 mps 734 mmHg 65%
    06:00 +22°C° 0.2 mm 5 mps 734 mmHg 60%
    07:00 +25°C° 0.2 mm 5 mps 734 mmHg 55%
    08:00 +26°C° 0.2 mm 5 mps 734 mmHg 49%
    09:00 +28°C° 0 mm 6 mps 734 mmHg 45%
    10:00 +29°C° 0 mm 7 mps 733 mmHg 40%
    11:00 +32°C° 0 mm 8 mps 733 mmHg 35%
    12:00 +32°C° 0 mm 8 mps 733 mmHg 32%
    13:00 +32°C° 0 mm 9 mps 733 mmHg 28%
    14:00 +33°C° 0 mm 9 mps 733 mmHg 25%
    15:00 +32°C° 0 mm 9 mps 733 mmHg 24%
    16:00 +31°C° 0 mm 10 mps 733 mmHg 24%
    17:00 +29°C° 0 mm 10 mps 734 mmHg 23%
    18:00 +27°C° 0 mm 8 mps 734 mmHg 26%
    19:00 +24°C° 0 mm 6 mps 735 mmHg 28%
    20:00 +22°C° 0 mm 5 mps 735 mmHg 31%
    21:00 +21°C° 0 mm 5 mps 736 mmHg 35%
    22:00 +19°C° 0 mm 5 mps 736 mmHg 38%
    23:00 +17°C° 0 mm 5 mps 737 mmHg 42%
    Show more